Fort Eustis, VA

1:54 AM EST on November 18, 2019 (GMT -0500)
Felker Army Air Field

Weather History for KFAF - September, 2019

Change the Weather History Date:

Thursday, September 26, 2019

  Actual Average Record
Temperature  
Mean Temperature 80 °F -  
Max Temperature 90 °F 75 °F 88 °F (2007)
Min Temperature 69 °F 59 °F 50 °F (2001)
Cooling Degree Days 14    
Growing Degree Days 30 (Base 50)    
Moisture  
Dew Point 67 °F    
Average Humidity 75    
Maximum Humidity 90    
Minimum Humidity 43    
Precipitation  
Precipitation 0.00 in - - ()
Sea Level Pressure  
Sea Level Pressure 29.85 in    
Wind  
Wind Speed 6 mph ()    
Max Wind Speed 20 mph    
Max Gust Speed 25 mph    
Visibility 10.0 miles    
Events Rain    
Averages and records for this station are not official NWS values.
T = Trace of Precipitation, MM = Missing Value Source: Averaged Metar Reports

Daily Weather History Graph

Daily Weather History Graph

Search for Another Location

Airport or City:

Astronomy

Sep. 26, 2019 Rise Set
Actual Time 6:57 AM EDT 6:57 PM EDT
Civil Twilight 6:31 AM EDT 7:23 PM EDT
Nautical Twilight 6:01 AM EDT 7:53 PM EDT
Astronomical Twilight 5:30 AM EDT 8:24 PM EDT
Moon 4:07 AM EDT (9/26) 6:04 PM EDT (9/26)
Length of Visible Light 12h 52m
Length of Day
12h 00m
Waning Crescent, 7% of the Moon is Illuminated
Sep 26
Waning Crescent
Sep 28
New
Oct 5
First Quarter
Oct 13
Full
Oct 21
Last Quarter

Hourly Weather History & Observations

Time (EDT) Temp. Heat Index Dew Point Humidity Pressure Visibility Wind Dir Wind Speed Gust Speed Precip Events Conditions
12:56 AM 70.0 °F - 63.5 °F 80% 29.90 in 10.0 mi South 6.9 mph - N/A   Clear
1:56 AM 70.3 °F - 63.5 °F 79% 29.89 in 10.0 mi South 6.9 mph - N/A   Clear
2:56 AM 70.3 °F - 63.5 °F 79% 29.87 in 10.0 mi South 6.9 mph - N/A   Clear
3:56 AM 70.5 °F - 63.7 °F 79% 29.86 in 10.0 mi South 8.1 mph - N/A   Clear
4:56 AM 70.2 °F - 64.4 °F 82% 29.85 in 10.0 mi South 6.9 mph - N/A   Clear
5:56 AM 69.8 °F - 65.1 °F 85% 29.84 in 10.0 mi South 5.8 mph - N/A   Partly Cloudy
6:16 AM 69.8 °F - 66.2 °F 88% 29.84 in 10.0 mi South 5.8 mph - N/A   Mostly Cloudy
6:26 AM 69.8 °F - 66.2 °F 88% 29.84 in 10.0 mi South 6.9 mph - N/A   Scattered Clouds
6:46 AM 69.8 °F - 66.2 °F 88% 29.85 in 10.0 mi South 6.9 mph - N/A   Mostly Cloudy
6:51 AM 69.8 °F - 66.2 °F 88% 29.85 in 10.0 mi SSW 5.8 mph - N/A   Overcast
6:56 AM 70.2 °F - 66.0 °F 87% 29.85 in 10.0 mi SSW 5.8 mph - N/A   Overcast
7:36 AM 69.8 °F - 66.2 °F 88% 29.85 in 10.0 mi South 6.9 mph - N/A   Overcast
7:56 AM 70.3 °F - 66.6 °F 88% 29.85 in 10.0 mi South 9.2 mph - N/A   Overcast
8:56 AM 70.3 °F - 67.3 °F 90% 29.87 in 10.0 mi SSW 6.9 mph - N/A   Overcast
9:26 AM 71.6 °F - 68.0 °F 88% 29.87 in 10.0 mi SW 6.9 mph - N/A   Overcast
9:36 AM 71.6 °F - 68.0 °F 88% 29.87 in 10.0 mi SW 4.6 mph - N/A   Overcast
9:46 AM 71.6 °F - 68.0 °F 88% 29.87 in 10.0 mi SW 5.8 mph - N/A   Overcast
9:56 AM 71.6 °F - 68.2 °F 89% 29.87 in 10.0 mi West 5.8 mph - N/A   Overcast
10:26 AM 73.4 °F - 68.0 °F 83% 29.86 in 10.0 mi WSW 4.6 mph - N/A   Overcast
10:38 AM 73.4 °F - 69.8 °F 88% 29.86 in 10.0 mi Variable 5.8 mph - N/A   Scattered Clouds
10:56 AM 75.6 °F - 69.3 °F 81% 29.85 in 10.0 mi SSW 6.9 mph - N/A   Partly Cloudy
11:56 AM 79.7 °F - 69.8 °F 72% 29.85 in 10.0 mi South 9.2 mph - N/A   Partly Cloudy
12:56 PM 82.6 °F 86.8 °F 70.5 °F 67% 29.83 in 10.0 mi South 4.6 mph - N/A   Partly Cloudy
1:56 PM 87.1 °F 90.9 °F 68.4 °F 54% 29.80 in 10.0 mi South 6.9 mph - N/A   Partly Cloudy
2:56 PM 89.8 °F 92.5 °F 66.2 °F 46% 29.77 in 10.0 mi WSW 8.1 mph - N/A   Scattered Clouds
3:56 PM 90.9 °F 93.1 °F 65.8 °F 43% 29.76 in 10.0 mi SSW 8.1 mph - N/A   Scattered Clouds
4:56 PM 90.0 °F 92.8 °F 66.4 °F 46% 29.76 in 10.0 mi SW 6.9 mph - N/A   Partly Cloudy
5:56 PM 88.5 °F 91.6 °F 66.9 °F 49% 29.77 in 10.0 mi SSW 6.9 mph - N/A   Partly Cloudy
6:56 PM 85.5 °F 88.5 °F 67.8 °F 55% 29.79 in 10.0 mi SSW 5.8 mph - N/A   Partly Cloudy
7:56 PM 82.9 °F 86.7 °F 69.4 °F 64% 29.81 in 10.0 mi SSW 5.8 mph - N/A   Scattered Clouds
8:14 PM 82.4 °F 86.3 °F 69.8 °F 66% 29.85 in 10.0 mi NW 19.6 mph 25.3 mph N/A Rain Light Rain
8:26 PM 78.8 °F - 69.8 °F 74% 29.86 in 10.0 mi NW 8.1 mph - N/A   Scattered Clouds
8:29 PM 78.8 °F - 69.8 °F 74% 29.85 in 10.0 mi NNW 9.2 mph - N/A Rain Light Rain
8:38 PM 78.8 °F - 69.8 °F 74% 29.85 in 10.0 mi North 4.6 mph - N/A   Mostly Cloudy
8:56 PM 78.8 °F - 68.2 °F 70% 29.86 in 10.0 mi NNE 4.6 mph - 0.00 in   Mostly Cloudy
9:56 PM 76.6 °F - 68.5 °F 76% 29.90 in 10.0 mi North 4.6 mph - N/A   Mostly Cloudy
10:56 PM 76.8 °F - 67.5 °F 73% 29.91 in 10.0 mi NNE 3.5 mph - N/A   Mostly Cloudy
11:56 PM 76.5 °F - 65.8 °F 70% 29.92 in 10.0 mi Calm Calm - N/A   Mostly Cloudy